Weather Roundup
Issued by NWS

Home | Current Version | Previous Version | Text Only | Print | Product List | Glossary On
Versions: 1 2 3 4 5 6 7 8 9 10 11 12 13 14 15 16 17 18 19 20 21 22 23 24 25 26 27 28 29 30 31 32 33 34 35 36 37 38 39 40 41 42 43 44 45 46 47 48 49 50
000
NZUS93 KARX 020010
HRRWXR

CURRENT HOURLY OBSERVATIONS ACROSS
MUCH OF THE UPPER MISSISSIPPI VALLEY
NATIONAL WEATHER SERVICE LA CROSSE WI
700 PM CDT SAT AUG 01 2015


...SOUTHEAST MINNESOTA...


CITY           SKY/WX    TMP DP  RH WIND       PRES   REMARKS
ROCHESTER      SUNNY     80  69  69 SW7       29.88F
ROCHESTER/MAYO FAIR      83  64  53 S5        29.86F
WINONA         SUNNY     82  64  54 CALM      29.85F
AUSTIN         SUNNY     82  64  54 SW6       29.86F
ALBERT LEA     SUNNY     82  64  54 SW5       29.86F
DODGE CENTER   SUNNY     81  70  69 S7        29.86F
PRESTON        SUNNY     81  66  59 SW3       29.89F
OWATONNA       SUNNY     82  66  57 S7        29.84F
FARIBAULT      SUNNY     82  70  65 S6        29.84F
$$

...ELSEWHERE IN MINNESOTA...


CITY           SKY/WX    TMP DP  RH WIND       PRES   REMARKS
MINNEAPOLIS    MOSUNNY   85  64  49 SW9       29.80F
INTNL FALLS    MOSUNNY   77  54  44 W9        29.71F
DULUTH         MOSUNNY   78  54  43 W10       29.79F
RED WING       MOSUNNY   84  64  51 S6        29.81F
REDWOOD FALLS  SUNNY     85  66  53 S10       29.80F
MANKATO        SUNNY     82  64  54 SW10      29.83F
WORTHINGTON    SUNNY     81  63  54 SW9G20    29.87F
FAIRMONT       SUNNY     82  61  47 S9G16     29.85F
$$

...SOUTHWEST WISCONSIN...


CITY           SKY/WX    TMP DP  RH WIND       PRES   REMARKS
LA CROSSE      SUNNY     85  63  47 W6        29.85F
PRAIRIE DU CHI MOSUNNY   85  60  43 SW5       29.87F
BOSCOBEL       SUNNY     86  65  49 W3        29.87F
LONE ROCK      SUNNY     84  61  45 NW5       29.88F
PLATTEVILLE    SUNNY     83  67  59 W5        29.91F
FORT MC COY    SUNNY     82  58  42 W3        29.87F
CAMP DOUGLAS   SUNNY     80  63  55 W8        29.86F
VIROQUA        FAIR      80  64  56 W3        29.90F
WIS DELLS      SUNNY     83  55  38 W6        29.87F
$$

...ELSEWHERE IN WISCONSIN...


CITY           SKY/WX    TMP DP  RH WIND       PRES   REMARKS
MILWAUKEE      MOSUNNY   83  57  41 NW8       29.87F
MADISON        MOSUNNY   83  58  42 NW5       29.87F
GREEN BAY      SUNNY     79  55  43 W7        29.84F
EAU CLAIRE     SUNNY     80  60  50 SW8       29.82F
BLACK RVR FLS  FAIR      83  58  41 W8        29.86S
MEDFORD        MOSUNNY   75  58  54 W5        29.87F
WAUSAU         SUNNY     79  53  40 W12       29.85F
WIS RAPIDS     SUNNY     80  52  37 NW8       29.87F
MARSHFIELD     SUNNY     76  54  46 W6        29.87F
RICE LAKE      MOSUNNY   77  58  51 CALM      29.85F
$$

...NORTHEAST IOWA...


CITY           SKY/WX    TMP DP  RH WIND       PRES   REMARKS
DECORAH        SUNNY     82  68  61 CALM      29.88F
MASON CITY     SUNNY     83  67  58 SW10      29.90F
CHARLES CITY   MOSUNNY   82  73  74 SW5       29.90F
OELWEIN        PTSUNNY   82  72  69 SW6       29.91F
$$

...ELSEWHERE IN IOWA...


CITY           SKY/WX    TMP DP  RH WIND       PRES   REMARKS
DES MOINES     MOSUNNY   87  70  56 SW8       29.91F HX  92
IOWA CITY      PTSUNNY   84  70  62 S5        29.93F
FORT DODGE     SUNNY     82  70  65 SW5       29.91F
$$

...NORTHERN ILLINOIS...


CITY           SKY/WX    TMP DP  RH WIND       PRES   REMARKS
CHICAGO-OHARE  PTSUNNY   83  61  47 SW16      29.89F
CHICAGO-MIDWAY PTSUNNY   85  59  41 W14       29.89F
MOLINE         PTSUNNY   82  68  62 SW6       29.92F
ROCKFORD       PTSUNNY   81  64  56 W12       29.91F
PEORIA         MOSUNNY   84  64  50 SW8       29.95F
$$

NOTE: "FAIR" INDICATES FEW OR NO CLOUDS BELOW 12,000 FEET WITH NO
SIGNIFICANT WEATHER AND/OR OBSTRUCTIONS TO VISIBILITY. WIND
SPEEDS ARE IN MILES-PER-HOUR.



USA.gov is the U.S. government's official web portal to all federal, state and local government web resources and services.